Meacham, OR

6:20 AM PDT on March 24, 2017 (GMT -0700)
Meacham

Weather History for KMEH - February, 2012

Change the Weather History Date:

Wednesday, February 8, 2012

  Actual Average Record
Temperature  
Mean Temperature 36 °F -  
Max Temperature 42 °F 35 °F 55 °F (2015)
Min Temperature 30 °F 17 °F 1 °F (2001)
Degree Days  
Heating Degree Days 29    
Moisture  
Dew Point 28 °F    
Average Humidity 77    
Maximum Humidity 93    
Minimum Humidity 59    
Precipitation  
Precipitation 0.02 in - - ()
Sea Level Pressure  
Sea Level Pressure 30.23 in    
Wind  
Wind Speed 0 mph (North)    
Max Wind Speed 0 mph    
Max Gust Speed -    
Visibility 8 miles    
Events Snow    
Averages and records for this station are not official NWS values.
T = Trace of Precipitation, MM = Missing Value Source: NWS Daily Summary

Daily Weather History Graph

Daily Weather History Graph

Search for Another Location

Airport or City:

Trip Planner

Search our weather history database for the weather conditions in past years. The results will help you decide how hot, cold, wet, or windy it might be!

Date:

Astronomy

Feb. 08, 2012 Rise Set
Actual Time 7:06 AM PST 5:09 PM PST
Civil Twilight 6:35 AM PST 5:40 PM PST
Nautical Twilight 6:00 AM PST 6:16 PM PST
Astronomical Twilight 5:25 AM PST 6:50 PM PST
Moon 6:42 PM PST (2/8) 7:06 AM PST (2/8)
Length of Visible Light 11h 05m
Length of Day
10h 03m
Full, 99% of the Moon is Illuminated
Feb 8
Full
Feb 14
Last Quarter
Feb 21
New
Feb 29
First Quarter
Mar 8
Full

Hourly Weather History & Observations

Time (PST) Temp. Dew Point Humidity Pressure Visibility Wind Dir Wind Speed Gust Speed Precip Events Conditions
12:56 AM 34.0 °F 21.0 °F 59% 30.09 in 10.0 mi Calm Calm - N/A   Partly Cloudy
1:56 AM 34.0 °F 21.0 °F 59% 30.11 in 10.0 mi Calm Calm - N/A   Overcast
2:56 AM 34.0 °F 21.9 °F 61% 30.13 in 10.0 mi Calm Calm - N/A   Overcast
3:56 AM 33.1 °F 23.0 °F 66% 30.14 in 10.0 mi Calm Calm - N/A   Overcast
4:56 AM 33.1 °F 23.0 °F 66% 30.17 in 10.0 mi Calm Calm - N/A   Overcast
5:44 AM 33.8 °F 26.6 °F 75% 30.12 in 1.8 mi Calm Calm - 0.00 in Snow Light Snow
5:56 AM 32.0 °F 27.0 °F 82% 30.19 in 2.0 mi Calm Calm - 0.01 in Snow Light Snow
6:06 AM 32.0 °F 26.6 °F 80% 30.12 in 2.5 mi Calm Calm - 0.00 in Snow Light Snow
6:24 AM 30.2 °F 28.4 °F 93% 30.12 in 2.0 mi Calm Calm - 0.00 in Snow Light Snow
6:56 AM 30.9 °F 28.0 °F 89% 30.20 in 2.0 mi Calm Calm - 0.00 in Snow Light Snow
7:04 AM 32.0 °F 28.4 °F 87% 30.13 in 1.8 mi Calm Calm - 0.01 in Snow Light Snow
7:14 AM 32.0 °F 28.4 °F 87% 30.12 in 2.5 mi Calm Calm - 0.01 in Snow Light Snow
7:27 AM 32.0 °F 28.4 °F 87% 30.13 in 2.5 mi Calm Calm - 0.01 in Snow Light Snow
7:38 AM 33.8 °F 28.4 °F 81% 30.13 in 3.0 mi Calm Calm - 0.01 in   Overcast
7:56 AM 33.1 °F 28.9 °F 85% 30.21 in 10.0 mi Calm Calm - 0.01 in   Overcast
8:56 AM 34.0 °F 28.9 °F 82% 30.23 in 10.0 mi Calm Calm - N/A   Overcast
9:26 AM 35.6 °F 28.4 °F 75% 30.17 in 6.0 mi Calm Calm - 0.00 in Snow Light Snow
9:56 AM 36.0 °F 28.9 °F 76% 30.25 in 10.0 mi Calm Calm - 0.00 in   Overcast
10:56 AM 37.9 °F 30.0 °F 73% 30.26 in 10.0 mi Calm Calm - N/A   Overcast
11:56 AM 39.0 °F 30.0 °F 70% 30.26 in 10.0 mi Calm Calm - N/A   Overcast
12:56 PM 41.0 °F 30.0 °F 65% 30.27 in 10.0 mi Calm Calm - N/A   Overcast
1:56 PM 42.1 °F 30.0 °F 62% 30.27 in 10.0 mi Calm Calm - N/A   Overcast
2:56 PM 41.0 °F 28.9 °F 62% 30.29 in 10.0 mi Calm Calm - N/A   Overcast
3:56 PM 39.9 °F 30.0 °F 68% 30.30 in 10.0 mi Calm Calm - N/A   Mostly Cloudy
4:56 PM 37.9 °F 28.9 °F 70% 30.30 in 10.0 mi Calm Calm - N/A   Scattered Clouds
5:56 PM 36.0 °F 28.9 °F 76% 30.32 in 10.0 mi Calm Calm - N/A   Overcast
6:04 PM 35.6 °F 28.4 °F 75% 30.25 in 10.0 mi Calm Calm - N/A   Overcast
6:46 PM 33.8 °F 28.4 °F 81% 30.26 in 10.0 mi Calm Calm - N/A   Mostly Cloudy
6:56 PM 34.0 °F 28.9 °F 82% 30.33 in 10.0 mi Calm Calm - N/A   Mostly Cloudy
7:56 PM 32.0 °F 28.0 °F 85% 30.32 in 10.0 mi Calm Calm - N/A   Scattered Clouds
8:34 PM 33.8 °F 28.4 °F 81% 30.26 in 10.0 mi Calm Calm - N/A   Mostly Cloudy
8:56 PM 33.1 °F 28.9 °F 85% 30.34 in 10.0 mi Calm Calm - N/A   Overcast
9:56 PM 32.0 °F 28.0 °F 85% 30.35 in 10.0 mi Calm Calm - N/A   Overcast
10:56 PM 33.1 °F 28.9 °F 85% 30.35 in 10.0 mi Calm Calm - N/A   Overcast
11:04 PM - - N/A% - - North - - N/A   Unknown
11:41 PM 33.8 °F 28.4 °F 81% 30.29 in 10.0 mi Calm Calm - N/A   Overcast
11:56 PM 33.1 °F 28.9 °F 85% 30.35 in 10.0 mi Calm Calm - N/A   Overcast